LA7IN Weather Reports


time (UTC)temp
C
wind
direction
speed
KPH
gust
KPH
rain 1hr
cm
rain 24hr
cm
rain mn
cm
humidity
%
barometer
mb
20260508010017 5 195 0.0 0.0 0.00 0.00 0.00 79 1019.3
20260508004510 5 194 0.0 4.8 0.00 0.00 0.00 79 1019.4
20260508003009 5 195 0.0 3.2 0.00 0.00 0.00 79 1019.4
20260508001508 5 195 0.0 1.6 0.00 0.00 0.00 78 1019.4
20260508000006 5 195 0.0 3.2 0.00 0.00 0.00 78 1019.5
20260507234506 5 197 1.6 4.8 0.00 0.00 0.00 78 1019.4
20260507233005 5 214 0.0 3.2 0.00 0.00 0.00 78 1019.5
20260507231509 5 217 0.0 3.2 0.00 0.00 0.00 77 1019.6
20260507230001 5 218 0.0 3.2 0.00 0.00 0.00 76 1019.5
20260507224601 5 218 1.6 3.2 0.00 0.00 0.00 76 1019.4
20260507223058 5 218 0.0 3.2 0.00 0.00 0.00 74 1019.4
20260507221600 6 217 1.6 4.8 0.00 0.00 0.00 73 1019.5
20260507220054 6 216 1.6 6.4 0.00 0.00 0.00 72 1019.5
20260507214553 6 223 1.6 6.4 0.00 0.00 0.00 72 1019.5
20260507213100 6 228 1.6 4.8 0.00 0.00 0.00 71 1019.4
20260507211557 6 230 1.6 4.8 0.00 0.00 0.00 70 1019.4
20260507210052 6 229 1.6 4.8 0.00 0.00 0.00 67 1019.3
20260507204557 6 230 3.2 6.4 0.00 0.00 0.00 66 1019.3
20260507203052 7 232 1.6 6.4 0.00 0.00 0.00 62 1019.4
20260507201601 7 225 3.2 6.4 0.00 0.00 0.00 59 1019.3
20260507200054 7 233 3.2 6.4 0.00 0.00 0.00 58 1019.1
20260507194557 8 226 3.2 6.4 0.00 0.00 0.00 58 1018.9
20260507193046 8 230 1.6 6.4 0.00 0.00 0.00 58 1018.7
20260507191605 8 260 1.6 8.0 0.00 0.00 0.00 58 1018.6
20260507190045 9 260 1.6 6.4 0.00 0.00 0.00 55 1018.5
20260507184555 9 305 3.2 8.0 0.00 0.00 0.00 52 1018.5
20260507183047 9 307 0.0 6.4 0.00 0.00 0.00 51 1018.4
20260507181542 10 305 3.2 8.0 0.00 0.00 0.00 50 1018.4
20260507180042 10 297 3.2 8.0 0.00 0.00 0.00 49 1018.2
20260507174545 10 308 4.8 12.9 0.00 0.00 0.00 49 1018.3
20260507173041 10 299 4.8 12.9 0.00 0.00 0.00 47 1018.3
20260507171548 10 307 4.8 8.0 0.00 0.00 0.00 47 1018.2
20260507170041 10 308 4.8 12.9 0.00 0.00 0.00 48 1018.3
20260507164555 10 303 4.8 12.9 0.00 0.00 0.00 50 1018.2
20260507163040 10 303 4.8 14.5 0.00 0.00 0.00 50 1018.2
20260507161540 10 297 6.4 14.5 0.00 0.00 0.00 52 1018.2
20260507160040 10 324 6.4 12.9 0.00 0.00 0.00 48 1018.2
20260507154538 11 305 6.4 14.5 0.00 0.00 0.00 46 1018.3
20260507153038 11 318 4.8 16.1 0.00 0.00 0.00 48 1018.3
20260507151538 11 279 3.2 14.5 0.00 0.00 0.00 46 1018.3
20260507150038 11 311 3.2 12.9 0.00 0.00 0.00 44 1018.3
20260507144537 11 307 8.0 14.5 0.00 0.00 0.00 46 1018.4
20260507143055 11 302 4.8 12.9 0.00 0.00 0.00 47 1018.4
20260507141553 12 322 4.8 14.5 0.00 0.00 0.00 45 1018.3
20260507140035 12 312 6.4 14.5 0.00 0.00 0.00 48 1018.4
20260507134535 12 304 4.8 14.5 0.00 0.00 0.00 46 1018.3
20260507133037 12 354 6.4 14.5 0.00 0.00 0.00 44 1018.4
20260507131538 12 318 6.4 16.1 0.00 0.00 0.00 43 1018.4
20260507130040 12 297 8.0 17.7 0.00 0.00 0.00 41 1018.4
20260507124535 12 322 3.2 16.1 0.00 0.00 0.00 41 1018.4
20260507123031 12 320 8.0 19.3 0.00 0.00 0.00 43 1018.3
20260507121529 12 359 4.8 12.9 0.00 0.00 0.00 45 1018.3
20260507120027 12 325 3.2 14.5 0.00 0.00 0.00 44 1018.3
20260507114529 11 290 4.8 12.9 0.00 0.00 0.00 47 1018.4
20260507113025 11 336 4.8 12.9 0.00 0.00 0.00 47 1018.4
20260507111522 11 295 3.2 9.7 0.00 0.00 0.00 48 1018.4
20260507110022 11 11 3.2 12.9 0.00 0.00 0.00 50 1018.4
20260507104519 11 41 3.2 8.0 0.00 0.00 0.00 48 1018.4
20260507103016 10 333 1.6 9.7 0.00 0.00 0.00 53 1018.5
20260507101516 10 337 1.6 9.7 0.00 0.00 0.00 51 1018.5
20260507100010 9 301 1.6 12.9 0.00 0.00 0.00 55 1018.5
20260507094509 8 320 3.2 9.7 0.00 0.00 0.00 56 1018.4
20260507093005 8 341 4.8 14.5 0.00 0.00 0.00 59 1018.4
20260507091506 8 295 6.4 14.5 0.00 0.00 0.00 61 1018.4
20260507090004 8 343 6.4 14.5 0.00 0.00 0.00 61 1018.4
20260507084503 8 354 3.2 12.9 0.00 0.00 0.00 62 1018.4
20260507083000 7 324 3.2 9.7 0.00 0.00 0.00 61 1018.4
20260507081603 7 333 3.2 14.5 0.00 0.00 0.00 62 1018.3
20260507080119 7 310 3.2 12.9 0.00 0.00 0.00 62 1018.2
20260507074600 7 95 1.6 6.4 0.00 0.00 0.00 64 1018.2
20260507073056 7 65 1.6 6.4 0.00 0.00 0.00 64 1018.3
20260507071552 7 324 0.0 6.4 0.00 0.00 0.00 70 1018.2
20260507070054 6 255 1.6 4.8 0.00 0.00 0.00 75 1018.1
20260507064617 6 278 1.6 4.8 0.00 0.00 0.00 75 1018.1
20260507063042 5 33 0.0 4.8 0.00 0.00 0.00 77 1018.0
20260507061540 5 312 1.6 4.8 0.00 0.00 0.00 79 1017.9
20260507060049 4 292 0.0 3.2 0.00 0.00 0.00 80 1017.9
20260507054543 4 299 0.0 3.2 0.00 0.00 0.00 81 1017.9
20260507053039 4 299 0.0 4.8 0.00 0.00 0.00 83 1017.9
20260507051542 3 295 0.0 4.8 0.00 0.00 0.00 85 1017.7
20260507050044 3 343 0.0 3.2 0.00 0.00 0.00 86 1017.7
20260507044535 3 341 0.0 3.2 0.00 0.00 0.00 86 1017.6
20260507043034 3 344 0.0 1.6 0.00 0.00 0.00 85 1017.7
20260507041533 3 344 0.0 4.8 0.00 0.00 0.00 85 1017.4
20260507040031 3 347 0.0 4.8 0.00 0.00 0.00 85 1017.5
20260507034530 3 9 0.0 3.2 0.00 0.00 0.00 85 1017.3
20260507033029 3 9 0.0 3.2 0.00 0.00 0.00 85 1017.4
20260507031528 3 359 1.6 6.4 0.00 0.00 0.00 85 1017.4
20260507030029 3 345 0.0 3.2 0.00 0.00 0.00 84 1017.3
20260507024527 3 345 1.6 3.2 0.00 0.00 0.00 84 1017.3
20260507023023 2 359 0.0 4.8 0.00 0.00 0.00 84 1017.1
20260507021521 2 359 0.0 3.2 0.00 0.00 0.00 83 1017.1
20260507020022 3 4 0.0 3.2 0.00 0.00 0.00 83 1017.0
20260507014519 3 4 0.0 3.2 0.00 0.00 0.00 82 1017.0
20260507013016 3 4 0.0 3.2 0.00 0.00 0.00 81 1016.9
20260507011516 3 4 0.0 4.8 0.00 0.00 0.00 81 1016.9